Location: Newark
(9.4667°S, 159.8167°E)
Time: 19:05:26
(UTC+00:00)

Courier 1B Rocket - Pass Details

Date: 20 November 2019
Orbit: 920 x 1202 km, 28.2° (Epoch: 07 December)

Event Time Altitude Azimuth Distance (km) Brightness Sun altitude
Rises 18:05:03 0° 232° (SW) 3,762 7.8 -10.9°
Reaches altitude 10° 18:09:21 10° 208° (SSW) 2,748 7.3 -10.0°
Maximum altitude 18:12:40 14° 178° (S) 2,417 7.4 -9.2°
Drops below altitude 10° 18:15:54 10° 147° (SSE) 2,669 8.2 -8.5°
Sets 18:19:57 0° 122° (ESE) 3,578 10.1 -7.5°
